Location: Trebic
(49.2170°N, 15.8830°E)
Time: 17:20:58
(UTC+02:00)

Vanguard 1 Rocket - All Passes

Search period start: 22 August 2019 00:00
Search period end: 01 September 2019 00:00
Orbit: 652 x 4224 km, 34.3° (Epoch: 21 August)

Date Brightness Start Highest point End Pass type
(mag) Time Alt. Az. Time Alt. Az. Time Alt. Az.
22 Aug - 04:55:17 10° SW 04:59:05 20° S 05:04:16 10° SE visible
22 Aug - 07:18:29 10° SW 07:23:36 21° S 07:31:07 10° SE daylight
22 Aug - 09:46:42 10° SW 09:49:19 11° SSW 09:52:17 10° SSW daylight
23 Aug - 03:45:52 10° SSW 03:48:34 15° SSE 03:51:43 10° SE visible
23 Aug - 06:08:12 10° SW 06:12:32 21° S 06:18:45 10° SE daylight
23 Aug - 08:33:26 10° SW 08:37:40 14° SSW 08:43:08 10° S daylight
24 Aug - 04:58:11 10° SW 05:01:47 19° S 05:06:29 10° SE visible
24 Aug - 07:22:08 10° SW 07:26:20 16° SSW 07:31:59 10° SSE daylight
25 Aug - 03:48:28 10° SSW 03:51:12 15° SSE 03:54:23 10° SE visible
25 Aug - 06:11:31 10° SW 06:15:17 17° S 06:20:18 10° SSE daylight
26 Aug - 02:39:22 10° S 02:40:41 11° SSE 02:42:05 10° SSE visible
26 Aug - 05:01:16 10° SW 05:04:29 17° S 05:08:32 10° SE visible
26 Aug - 07:26:40 10° SW 07:29:05 12° SSW 07:31:53 10° S daylight
27 Aug - 03:51:15 10° SSW 03:53:52 15° S 03:56:53 10° SE visible
27 Aug - 06:15:17 10° SW 06:18:02 13° S 06:21:22 10° SSE daylight
28 Aug - 02:41:26 10° SSW 02:43:20 12° S 02:45:17 10° SE visible
28 Aug - 05:04:37 10° SW 05:07:13 14° S 05:10:18 10° SSE visible
29 Aug - 03:54:13 10° SSW 03:56:35 14° S 03:59:11 10° SSE visible
30 Aug - 02:43:54 10° SSW 02:46:01 13° S 02:48:09 10° SSE visible
30 Aug - 05:08:39 10° SSW 05:09:57 11° S 05:11:20 10° S visible
31 Aug - 01:33:37 10° SSW 01:35:26 12° S 01:37:10 10° SSE night (unlit)
31 Aug - 03:57:29 10° SSW 03:59:16 12° S 04:01:11 10° SSE visible
